sat.trackr.live / text

‹ back to catalog

SHIYAN-27 OBJECT A

NORAD 63599 · 2025-078A

PAYLOAD ACTIVE UNKNOWN

§ Identity

Operator
Country
PRC
Launch date
2025-04-18
Launch site
TAISC
Launch vehicle
Mass (kg)
RCS (m²)

External: N2YO · Heavens-Above · Gunter

§ Orbital elements

Epoch: 2026-05-25T05:54:36.049248Z

Period
106.10 min
Inclination
99.6900°
Eccentricity
0.0001233
Mean motion
13.57247748 rev/d
Perigee alt
1,044.8 km
Apogee alt
1,046.6 km
Semi-major
7,423.8 km
B*
5.8662e-5
RAAN
152.8197°
Arg perigee
88.7619°
Mean anomaly
271.3661°
Rev number
5,442

§ Raw data

SHIYAN-27 OBJECT A1 63599U 25078A   26145.24625057 -.00000002  00000+0  58662-4 0  99962 63599  99.6900 152.8197 0001233  88.7619 271.3661 13.57247748 54427

JSON: /api/v1/satellites/63599 · /tle

For live sub-satellite position, see the globe view (requires WebGL).

§ Visibility from observer

Set your observer location to see the next 7 days of passes ≥ 10°. The values pass through the URL so the page stays shareable.

No JS? Fill the form by hand. The geolocation button needs JavaScript.